Wind_Speed
16 16 18 19 21 23 27 29 31 29 29 29 30 31 32 33 35 36 37 38 39 41 42 44 45 45 46 47 48 49 50 50 51 51 51 52 52 52 52 51 50 50 49 49
17 17 18 18 19 21 23 25 27 28 27 27 29 30 31 32 34 35 36 37 38 39 42 43 44 45 46 46 47 48 49 50 51 52 52 52 52 52 52 52 51 50 50 50
17 17 18 18 18 20 22 24 26 28 27 29 29 29 31 32 32 33 35 37 38 39 41 43 44 45 45 46 46 48 49 49 50 52 53 53 53 53 53 53 53 52 51 51
18 19 20 20 20 21 22 23 25 26 27 29 31 31 32 33 33 33 34 35 37 39 40 42 43 44 45 46 46 47 48 49 50 51 52 53 54 54 53 53 53 53 53 53
17 18 19 20 21 23 24 24 25 26 26 28 29 31 32 32 33 33 34 34 35 37 39 40 42 43 44 45 46 47 47 48 48 49 50 52 53 53 54 54 54 54 54 54
18 19 19 19 20 22 23 24 25 26 27 27 27 29 29 31 32 32 33 34 34 35 37 38 39 40 42 43 44 45 46 47 48 48 49 50 51 52 52 53 53 53 53 54
19 20 20 19 20 22 23 23 24 26 26 27 27 28 28 30 31 31 32 33 34 34 35 36 37 38 40 41 42 43 43 44 45 46 48 49 49 50 50 51 51 52 52 52
21 21 20 20 20 21 22 23 24 25 26 26 27 28 29 30 30 31 31 32 32 33 33 34 35 36 38 39 41 42 42 43 44 45 46 47 47 48 48 49 49 49 49 50
22 22 22 21 21 22 22 23 23 24 24 25 26 27 29 29 30 30 31 31 31 32 33 33 34 35 36 38 39 40 41 41 41 42 43 43 44 45 45 45 45 46 47 48
23 23 23 23 23 23 23 23 23 23 23 24 24 25 26 28 29 30 29 30 30 31 32 32 33 34 35 35 36 37 38 38 39 39 40 41 42 43 43 43 44 44 44 45
24 24 24 24 24 24 24 23 23 24 24 24 25 25 26 27 27 28 29 29 29 30 30 31 32 32 33 33 34 35 35 35 36 37 38 39 40 41 42 43 43 43 43 43
26 25 26 25 25 25 25 25 25 25 25 25 25 25 25 26 26 27 27 28 29 29 30 30 31 31 32 32 32 33 33 34 35 36 37 38 38 39 41 42 42 42 41 41
27 27 27 27 26 25 26 26 26 26 26 26 26 25 25 25 26 26 27 27 28 29 29 29 30 31 31 32 31 32 32 33 34 35 35 36 36 37 38 39 40 40 40 39
27 27 27 27 27 26 26 26 27 27 27 27 27 26 25 25 25 26 26 27 27 28 28 28 29 29 30 31 31 31 32 32 33 34 34 34 35 35 36 36 37 38 38 38
29 28 27 27 28 28 28 27 27 27 28 27 27 26 26 26 26 26 26 27 27 28 28 28 28 28 29 29 30 30 31 32 32 33 33 34 34 35 35 35 36 36 36 37
29 29 29 29 29 29 29 28 28 28 28 28 27 27 27 27 27 28 28 28 28 28 28 29 28 28 27 27 28 29 30 31 32 32 33 34 34 34 34 34 35 35 36 37
29 29 29 29 29 29 28 28 28 28 29 28 28 28 28 28 28 28 28 28 28 28 29 29 28 28 28 28 28 29 30 31 31 31 32 32 33 32 33 33 33 34 35 36
29 29 30 29 29 29 29 29 28 28 29 29 28 28 28 28 28 28 28 28 28 29 29 29 29 29 29 29 29 29 30 30 31 31 31 31 30 31 31 32 32 33 35 36
29 29 29 29 29 29 29 29 29 29 29 28 28 28 27 27 27 27 28 28 28 29 29 29 29 30 31 31 30 30 30 31 31 30 30 30 30 31 31 32 33 34 35 35
28 28 29 29 29 28 28 28 28 28 28 28 28 28 28 28 27 27 27 27 28 28 29 29 29 29 30 30 30 30 31 30 30 30 30 31 31 32 32 33 34 34 35 35
28 27 28 28 28 27 27 27 27 27 27 27 27 28 28 28 27 27 27 27 27 28 28 28 29 29 29 29 30 30 30 29 30 30 30 31 32 32 33 33 33 34 34 34
28 28 28 28 28 28 27 27 27 27 27 27 27 27 27 27 26 26 26 26 27 27 28 29 29 29 29 30 30 29 29 30 30 30 31 31 32 32 32 32 32 32 32 32
29 29 29 29 29 28 28 28 27 27 27 27 27 27 26 26 26 26 26 26 26 27 27 28 28 28 29 28 28 29 29 29 29 30 30 30 31 31 30 30 30 29 29 30
30 29 30 30 30 30 29 28 28 28 28 27 27 26 26 25 25 26 26 26 26 26 27 27 27 27 27 26 27 27 27 28 28 28 27 28 28 28 28 28 28 27 27 27
30 30 30 30 31 30 29 29 28 27 27 27 27 27 26 26 26 26 26 26 26 26 25 25 25 25 24 24 23 24 24 25 25 25 26 26 26 25 26 26 26 26 25 25
31 31 30 30 30 30 29 28 28 27 27 27 27 27 26 26 26 25 25 25 25 24 23 23 23 23 23 22 23 23 23 23 23 23 23 24 23 23 24 24 24 24 24 24
31 30 30 30 30 30 30 30 29 28 28 27 27 26 25 25 24 24 24 24 23 23 22 22 22 22 22 22 22 22 22 22 22 22 22 22 22 22 22 23 22 22 22 22
Wind_Direction
265 268 264 261 257 253 252 252 254 255 255 255 257 258 256 255 254 254 254 253 252 251 252 252 253 254 253 253 253 253 253 252 252 252 253 254 254 255 256 257 259 260 261 262
269 268 268 264 261 258 257 256 254 253 254 254 255 257 257 256 256 255 255 255 255 254 254 254 255 255 255 254 255 255 255 254 254 254 254 254 254 255 256 257 259 260 261 262
271 269 266 266 263 263 262 262 261 259 257 256 256 257 257 256 257 257 256 256 255 255 255 254 255 255 255 255 256 256 255 255 256 256 255 255 255 256 257 258 258 259 261 262
277 273 269 270 268 267 266 265 264 263 260 259 258 258 259 259 260 259 259 259 257 257 257 256 256 255 255 256 257 257 257 257 256 256 256 256 256 256 257 258 258 259 261 262
283 276 272 270 269 268 268 267 267 266 264 262 262 261 261 261 261 261 261 260 259 260 259 259 258 258 257 257 258 257 258 257 257 257 257 257 257 257 258 258 258 259 260 262
285 280 277 274 271 269 270 269 267 267 266 265 265 264 262 262 262 262 261 261 261 261 261 260 259 258 257 258 258 258 258 258 258 258 258 258 257 257 258 259 260 260 261 262
285 282 281 280 276 274 273 273 271 269 268 267 266 265 263 261 262 263 263 263 264 264 263 262 260 259 259 259 259 259 259 259 259 259 259 259 258 258 259 259 260 260 261 262
287 285 284 283 279 277 276 275 275 273 271 270 269 267 265 264 263 263 263 264 265 266 265 264 263 262 262 262 261 261 261 261 260 260 259 259 259 259 260 260 260 260 261 262
286 286 284 282 281 279 277 275 274 273 273 273 271 270 268 267 266 266 266 267 267 266 266 266 265 265 265 264 264 263 262 262 262 261 261 261 260 259 259 260 261 262 263 263
284 284 282 281 280 280 278 277 276 275 275 276 276 274 272 270 268 268 269 269 269 269 268 268 266 266 266 265 264 263 263 263 263 263 262 261 261 260 260 260 261 262 264 264
283 283 282 280 279 279 277 278 279 278 279 279 280 279 276 274 272 271 270 270 269 270 269 268 268 267 267 267 266 265 264 263 263 263 263 262 262 261 260 260 262 264 264 264
284 283 281 278 278 278 277 277 278 279 280 281 281 280 279 276 274 274 274 272 271 271 271 270 269 268 268 269 269 268 266 265 265 264 264 264 263 263 262 261 262 264 264 265
284 283 280 278 278 278 277 276 277 279 280 281 281 279 278 277 276 275 275 274 274 274 274 273 272 270 269 270 271 270 269 267 266 266 266 266 265 265 264 263 262 263 264 265
283 283 281 280 278 278 277 277 277 278 278 279 278 278 278 278 277 276 276 275 275 275 276 276 275 273 271 271 271 271 270 269 268 267 266 266 266 266 266 265 264 263 264 266
281 282 281 281 279 279 279 279 278 277 277 277 277 277 278 278 278 277 277 277 276 276 276 276 276 276 275 274 271 271 271 271 270 268 267 267 267 267 266 266 265 264 265 267
281 281 280 280 280 280 279 278 278 277 277 276 276 276 278 278 278 278 278 278 277 277 276 276 276 276 275 275 274 273 273 273 272 271 270 269 269 268 267 267 266 266 267 269
281 281 279 278 278 278 279 278 277 276 277 277 277 277 279 279 278 277 277 277 277 277 276 275 274 274 274 274 275 275 275 275 274 273 272 272 270 269 269 268 268 268 269 271
280 280 280 278 277 278 278 279 278 277 276 277 278 278 279 279 278 277 276 276 278 278 276 275 274 274 274 274 274 275 275 276 275 274 273 272 271 271 270 270 270 271 272 272
282 281 279 278 278 278 279 280 279 278 277 277 278 279 279 279 279 278 277 277 276 276 276 275 275 274 274 274 274 274 274 275 275 275 274 273 273 272 272 273 273 274 275 274
282 281 279 278 277 277 278 278 279 279 278 278 278 278 279 279 279 280 280 278 276 275 275 275 276 276 275 274 273 274 275 275 275 275 275 274 274 274 274 274 274 274 275 275
282 281 279 278 277 278 278 278 278 278 278 278 278 278 279 279 280 281 281 280 278 276 275 275 276 276 275 275 275 276 275 275 276 276 277 276 276 275 276 276 276 275 275 275
281 280 278 278 277 277 277 277 277 278 278 278 278 278 278 279 280 281 281 281 281 279 278 277 277 277 278 277 277 276 276 276 276 277 278 278 277 277 277 277 276 275 275 275
282 280 278 276 276 276 277 276 275 276 277 278 279 279 279 280 280 282 282 282 283 282 281 279 278 278 278 277 277 277 278 278 278 278 279 279 278 277 277 276 276 275 276 276
283 281 279 277 276 275 276 275 275 275 276 277 278 279 280 280 280 281 283 284 285 285 283 282 280 279 279 278 278 279 279 279 279 279 280 281 280 278 277 276 275 276 277 277
282 281 279 277 275 273 273 273 273 272 274 275 277 278 279 280 281 281 283 285 286 286 284 283 281 280 280 280 280 281 281 280 280 280 281 281 280 279 278 277 276 276 277 276
282 281 279 277 275 273 272 272 271 271 272 274 275 277 279 281 282 282 283 284 285 285 284 283 282 281 280 281 282 283 283 282 282 281 281 281 280 279 279 277 277 277 277 277
281 280 277 275 274 272 270 269 269 271 272 272 273 275 277 279 281 282 282 283 284 284 284 283 282 282 281 281 282 283 284 284 284 283 282 282 281 281 280 278 277 277 278 278
Height
5595 5595 5596 5597 5598 5599 5600 5602 5603 5606 5608 5610 5611 5612 5614 5615 5616 5618 5620 5622 5624 5626 5628 5630 5632 5633 5635 5637 5639 5640 5642 5644 5646 5648 5651 5653 5655 5657 5658 5660 5662 5663 5665 5666
5591 5591 5591 5592 5593 5594 5595 5596 5597 5598 5601 5603 5603 5604 5605 5606 5608 5609 5610 5612 5613 5615 5617 5619 5620 5622 5623 5625 5627 5628 5630 5632 5634 5635 5637 5639 5641 5643 5646 5648 5649 5651 5652 5653
5587 5587 5587 5588 5589 5589 5590 5591 5591 5592 5596 5595 5596 5596 5597 5598 5599 5599 5600 5602 5603 5605 5606 5607 5608 5610 5611 5613 5614 5616 5617 5619 5620 5622 5624 5626 5628 5630 5633 5635 5636 5638 5639 5641
5582 5583 5582 5587 5585 5585 5585 5585 5586 5586 5587 5588 5588 5589 5589 5590 5590 5591 5591 5592 5593 5593 5595 5596 5597 5598 5599 5600 5602 5603 5604 5606 5607 5609 5610 5612 5614 5617 5619 5621 5623 5624 5626 5627
5578 5577 5578 5580 5579 5578 5579 5580 5580 5580 5580 5580 5580 5581 5582 5582 5582 5582 5582 5582 5583 5583 5584 5585 5585 5587 5588 5589 5590 5591 5592 5593 5594 5595 5597 5599 5601 5603 5605 5607 5609 5611 5612 5614
5573 5571 5572 5575 5573 5572 5573 5573 5573 5572 5572 5573 5573 5574 5575 5574 5573 5573 5573 5573 5573 5573 5574 5574 5574 5575 5576 5577 5578 5579 5580 5580 5582 5583 5584 5586 5587 5589 5591 5593 5595 5597 5598 5599
5568 5566 5567 5568 5567 5566 5567 5568 5566 5565 5565 5565 5565 5566 5566 5565 5564 5564 5564 5564 5564 5564 5564 5564 5564 5565 5565 5566 5566 5567 5568 5568 5569 5570 5571 5573 5574 5576 5578 5580 5581 5583 5585 5586
5563 5562 5564 5562 5560 5560 5560 5559 5558 5558 5558 5558 5557 5557 5557 5556 5556 5556 5555 5555 5555 5555 5554 5554 5554 5555 5555 5555 5556 5556 5557 5557 5558 5558 5559 5560 5562 5563 5565 5567 5568 5569 5571 5572
5559 5560 5557 5555 5554 5553 5552 5552 5551 5551 5550 5550 5550 5549 5548 5548 5548 5547 5547 5546 5546 5546 5545 5545 5545 5545 5545 5545 5545 5545 5546 5546 5546 5547 5547 5548 5549 5551 5553 5554 5555 5556 5558 5559
5552 5552 5550 5549 5547 5546 5546 5545 5544 5544 5543 5543 5542 5541 5540 5540 5539 5539 5538 5538 5537 5537 5536 5536 5536 5535 5535 5535 5534 5535 5535 5535 5535 5536 5537 5537 5538 5539 5541 5542 5543 5544 5546 5547
5545 5545 5543 5542 5540 5540 5539 5538 5537 5537 5536 5535 5534 5533 5533 5532 5531 5531 5530 5529 5529 5528 5528 5527 5526 5526 5525 5525 5524 5524 5524 5525 5525 5525 5526 5526 5527 5528 5529 5531 5532 5533 5534 5535
5538 5537 5535 5535 5533 5533 5532 5531 5530 5529 5529 5527 5527 5526 5525 5524 5523 5523 5522 5521 5520 5520 5519 5518 5517 5516 5516 5515 5515 5515 5515 5515 5515 5515 5515 5516 5516 5517 5517 5519 5520 5521 5522 5523
5530 5528 5526 5526 5526 5525 5524 5523 5523 5522 5521 5520 5519 5518 5517 5516 5515 5515 5514 5513 5512 5511 5510 5509 5508 5507 5507 5506 5506 5506 5505 5505 5505 5505 5505 5506 5506 5506 5507 5508 5509 5510 5511 5512
5522 5520 5519 5518 5518 5517 5516 5515 5515 5514 5513 5512 5511 5510 5509 5509 5508 5507 5506 5505 5504 5503 5502 5501 5500 5499 5498 5497 5497 5497 5496 5496 5496 5496 5496 5496 5496 5496 5496 5497 5498 5499 5500 5501
5514 5512 5511 5510 5509 5508 5508 5507 5507 5506 5505 5504 5504 5503 5502 5501 5500 5499 5498 5497 5496 5495 5494 5493 5492 5490 5489 5489 5488 5488 5487 5487 5487 5486 5486 5486 5486 5486 5486 5487 5488 5489 5489 5490
5505 5504 5503 5502 5501 5500 5499 5499 5498 5498 5497 5496 5495 5495 5494 5493 5492 5491 5489 5488 5488 5487 5486 5484 5483 5482 5481 5480 5480 5479 5479 5478 5478 5477 5477 5476 5476 5476 5477 5477 5478 5479 5479 5479
5496 5495 5494 5493 5492 5492 5491 5491 5490 5489 5488 5488 5487 5486 5485 5484 5483 5482 5481 5480 5479 5478 5477 5476 5475 5474 5473 5472 5471 5471 5470 5469 5468 5468 5467 5467 5467 5467 5467 5467 5468 5468 5468 5469
5487 5486 5485 5484 5484 5483 5483 5482 5482 5481 5480 5479 5479 5477 5476 5475 5474 5473 5472 5471 5470 5469 5468 5467 5466 5465 5464 5464 5463 5462 5461 5460 5460 5459 5458 5458 5457 5457 5457 5457 5458 5458 5458 5458
5478 5477 5476 5475 5475 5474 5474 5473 5473 5472 5471 5471 5470 5469 5468 5467 5465 5464 5463 5462 5461 5460 5459 5458 5457 5456 5455 5455 5454 5453 5452 5452 5451 5450 5449 5449 5448 5448 5448 5448 5448 5448 5448 5447
5469 5468 5467 5466 5466 5466 5465 5465 5464 5463 5463 5462 5461 5460 5459 5458 5457 5456 5454 5453 5452 5451 5450 5449 5448 5447 5446 5446 5445 5444 5443 5442 5442 5441 5440 5440 5439 5439 5438 5438 5438 5437 5437 5437
5460 5459 5458 5458 5457 5457 5457 5456 5456 5455 5454 5453 5452 5451 5450 5449 5448 5447 5446 5445 5444 5442 5442 5441 5440 5439 5438 5437 5436 5435 5434 5434 5433 5432 5431 5431 5430 5429 5429 5428 5427 5427 5426 5426
5450 5450 5449 5449 5449 5448 5448 5447 5447 5446 5446 5445 5444 5443 5442 5441 5440 5439 5438 5437 5435 5434 5433 5432 5431 5430 5429 5428 5427 5426 5425 5425 5424 5423 5422 5421 5421 5420 5419 5418 5417 5417 5416 5415
5441 5440 5440 5440 5439 5439 5439 5439 5438 5438 5437 5436 5435 5434 5434 5433 5432 5431 5430 5428 5427 5425 5424 5422 5421 5420 5420 5419 5418 5417 5416 5415 5415 5414 5413 5412 5411 5410 5409 5408 5408 5407 5406 5405
5431 5431 5430 5430 5430 5430 5430 5429 5429 5429 5428 5428 5427 5426 5425 5424 5424 5422 5421 5420 5418 5417 5415 5414 5412 5411 5411 5410 5409 5409 5408 5407 5406 5405 5404 5403 5402 5401 5400 5399 5398 5398 5397 5396
5422 5421 5421 5420 5420 5420 5420 5420 5420 5419 5419 5419 5418 5418 5417 5416 5415 5414 5413 5412 5410 5409 5407 5405 5404 5403 5403 5402 5401 5400 5399 5398 5397 5396 5395 5394 5393 5392 5391 5390 5390 5389 5388 5388
5412 5411 5411 5410 5410 5410 5410 5410 5410 5410 5410 5410 5410 5409 5408 5408 5407 5406 5405 5403 5402 5401 5399 5398 5397 5396 5395 5394 5394 5393 5392 5391 5390 5389 5388 5386 5385 5384 5383 5382 5382 5381 5380 5379
5402 5401 5400 5400 5400 5399 5399 5400 5400 5400 5400 5400 5401 5401 5400 5400 5399 5398 5397 5396 5395 5393 5392 5391 5390 5389 5388 5387 5386 5386 5385 5384 5383 5382 5380 5379 5378 5377 5376 5375 5374 5374 5373 5372